Location: La Chaud
(46.1098°N, 1.7333°E)
Time: 06:16:10
(UTC+00:00)

Daily predictions for brighter satellites

Satellite Brightness Start Highest point End
(mag) Time Altitude Azimuth Time Altitude Azimuth Time Altitude Azimuth
Cosmos 1842 3.3 20:17:07 10° S 20:21:00 64° E 20:24:56 10° NNE
Resurs 01 Rocket 1.6 20:18:31 10° SSE 20:22:54 80° ENE 20:27:21 10° N
Cosmos 1766 3.8 20:20:18 10° NNW 20:24:07 60° W 20:27:54 10° S
Cosmos 2151 Rocket 3.7 20:22:18 10° NNW 20:26:44 79° W 20:31:07 10° S
Cosmos 1697 Rocket 4.3 20:24:09 10° SW 20:29:25 40° NW 20:34:43 10° NNE
SL-16 R/B 2.8 20:27:31 10° S 20:32:40 37° ESE 20:37:50 10° NE
SPOT 1/Viking Rocket 3.8 20:27:39 10° SSE 20:32:40 57° ENE 20:37:43 10° N
SL-23 DEB 4.4 20:31:32 10° WSW 20:34:53 63° NNW 20:39:57 10° ENE
Cosmos 1315 Rocket 3.2 20:31:23 10° N 20:35:27 51° ENE 20:39:29 10° SSE
Cosmos 1470 2.9 20:31:52 10° N 20:35:49 62° ENE 20:39:44 10° SSE
SL-8 R/B 4.1 20:31:26 10° W 20:36:13 65° N 20:41:00 10° E
Cosmos 2227 4.2 20:31:08 10° NNW 20:36:48 78° ENE 20:42:25 10° SSE
Cosmos 2056 Rocket 3.5 20:31:41 10° SSW 20:36:53 85° ESE 20:42:11 10° NNE
Cosmos 2322 Rocket 3.0 20:32:04 10° SSE 20:37:02 32° ESE 20:42:02 10° NE
Cosmos 2360 Rocket 3.6 20:33:42 10° SE 20:37:30 19° E 20:41:19 10° ENE
OBJECT-B 3.7 20:37:22 10° SW 20:39:09 14° W 20:40:56 10° WNW
USA 245 4.2 20:34:57 10° SSE 20:39:20 57° ENE 20:44:41 10° N
Cosmos 2278 4.1 20:33:48 10° SW 20:39:29 70° WNW 20:45:11 10° NNE
Cosmos 1626 4.4 20:40:14 10° E 20:40:24 10° E 20:40:33 10° E
ERS-2 4.5 20:38:18 10° N 20:41:26 27° WNW 20:44:33 10° SW
CARTOSAT-1 4.2 20:37:51 10° SE 20:41:52 40° ENE 20:45:56 10° N
CZ-2C R/B 3.9 20:38:15 10° NNE 20:42:59 61° ESE 20:47:42 10° S
Okean 2 3.3 20:39:16 10° S 20:43:20 75° E 20:47:25 10° NNE
Genesis I 3.6 20:41:39 10° S 20:45:14 39° ESE 20:48:55 10° NE
Cosmos 407 Rocket 4.4 20:40:29 10° NNW 20:45:33 46° WSW 20:50:33 10° S
Cosmos 1975 Rocket 4.0 20:45:14 10° SSE 20:48:53 29° E 20:52:42 10° NNE
Cosmos 1758 3.4 20:48:30 10° N 20:52:28 60° ENE 20:56:03 12° SSE
Geosat 4.1 20:50:14 11° SE 20:54:58 75° ENE 21:00:01 10° NNW
NOSS 3-2 (C) 3.3 20:50:40 10° SSW 20:56:12 72° SE 21:02:37 10° NE
Cosmos 1980 Rocket 3.4 20:51:21 10° SW 20:56:45 45° WNW 21:02:09 10° NNE
NOSS 3-2 (A) 3.7 20:51:27 10° SW 20:57:03 72° NW 21:03:35 10° NE
Spot 2 Rocket 3.6 20:52:27 11° SSE 20:57:17 67° ENE 21:02:20 10° N
Cosmos 1420 Rocket 4.0 20:52:30 10° SSW 20:57:41 83° ESE 21:02:55 10° NNE
Cosmos 1674 Rocket 4.3 20:54:22 10° SSW 20:58:41 55° WNW 21:03:01 10° N
SPOT 3 Rocket 4.1 20:54:20 10° S 20:59:23 58° W 21:04:31 10° NNW
SPOT 5 3.5 20:55:35 12° SE 21:00:06 49° ENE 21:04:56 10° N
ARIANE 5 R/B 2.8 20:57:21 13° SSE 21:01:16 63° ENE 21:05:42 10° N
Cosmos 1674 3.5 21:00:03 15° SSE 21:02:37 31° E 21:05:56 10° NNE
ATLAS 3B R/B 4.0 21:05:51 14° SE 21:08:44 18° ESE 21:12:59 10° ENE
ERS-1 Rocket 3.2 21:04:54 14° SSE 21:09:07 59° ENE 21:14:05 10° N
Cosmos 1741 Rocket 4.3 21:08:10 10° NNW 21:13:21 56° ENE 21:17:21 17° SE
FALCON 9 DEB 4.4 21:13:32 20° SE 21:13:44 20° SE 21:16:17 10° E
Cosmos 292 Rocket 3.7 21:09:10 10° SSW 21:14:01 83° ESE 21:18:52 10° NNE
Lacrosse 5 1.9 21:10:36 10° NW 21:15:41 79° SW 21:19:33 17° SE
Cosmos 1844 Rocket 3.4 21:11:25 10° NNW 21:16:52 44° NE 21:21:16 15° SE
Cosmos 1461 4.1 21:13:42 10° NNW 21:17:38 34° NE 21:20:50 13° ESE
Cosmos 1908 3.7 21:15:16 10° N 21:19:01 45° ENE 21:21:21 20° SE
Cosmos 2173 Rocket 4.2 21:13:34 10° N 21:19:53 61° ENE 21:24:54 17° SSE
Terra 2.2 21:18:33 18° SE 21:21:59 53° ENE 21:26:38 10° N
Cosmos 1953 2.6 21:18:14 10° N 21:22:15 56° ENE 21:24:51 20° SSE
Cosmos 1707 3.5 21:21:58 10° SSW 21:25:45 52° WNW 21:29:33 10° N
Cosmos 1727 Rocket 4.1 21:20:46 10° S 21:27:06 83° W 21:33:26 10° N
USA 215 3.5 21:21:57 10° ENE 21:28:08 43° SE 21:34:18 10° SSW
Cosmos 2263 Rocket 3.3 21:23:35 10° NW 21:28:48 37° WSW 21:33:54 10° S
USA 81 4.4 21:23:41 10° NNW 21:28:54 64° W 21:33:56 11° S
Cosmos 1726 3.7 21:25:43 10° NNW 21:28:55 30° W 21:32:06 10° SSW
USA 238 DEB 4.2 21:25:09 10° SW 21:31:39 62° NW 21:38:31 10° NE
USA 238 4.2 21:25:15 10° SW 21:31:45 62° NW 21:38:38 10° NE
Cosmos 1544 Rocket 4.0 21:27:41 10° N 21:32:02 48° ENE 21:34:38 22° SE
Cosmos 1340 4.0 21:31:14 20° ESE 21:32:25 24° E 21:35:30 10° NE
SL-14 R/B 4.3 21:35:27 22° SE 21:37:04 30° E 21:40:38 10° NNE
Cosmos 2333 Rocket 3.3 21:34:44 20° SE 21:37:12 26° ESE 21:41:53 10° NE
Cosmos 1455 Rocket 3.1 21:32:53 10° N 21:37:22 89° ENE 21:40:20 21° S
ATLAS CENTAUR R/B 3.2 21:35:20 10° NNW 21:38:56 26° NE 21:42:39 10° E
Cosmos 1802 Rocket 4.1 21:34:51 10° N 21:41:05 69° E 21:45:31 21° SSE
In-Cosmos 22 4.4 21:38:00 10° SSW 21:43:15 66° WNW 21:48:32 10° N
Aureole 1 Rocket 4.0 21:38:53 10° NNW 21:44:25 72° ENE 21:49:18 21° SSE
GEOS 3 Rocket 4.1 21:44:23 17° ESE 21:48:30 56° NE 21:53:43 10° NNW
CENTAUR R/B 3.5 21:44:45 10° WSW 21:50:39 51° NW 21:57:43 10° NE
H-2A R/B 3.3 21:49:34 10° NNE 21:53:40 70° ESE 21:55:56 25° S
Cosmos 1844 3.8 21:48:39 10° NNW 21:54:14 68° ENE 21:57:38 24° SE
Cosmos 1110 Rocket 3.9 21:50:23 16° S 21:54:27 70° ESE 21:59:39 10° NNE
Resurs 01 Rocket 4.3 21:58:40 10° WSW 21:59:59 11° W 22:01:17 10° WNW
Cosmos 2219 Rocket 3.0 21:58:17 25° SSE 22:00:35 34° ESE 22:05:39 10° NE
USA 267 3.8 21:55:48 10° ESE 22:02:09 56° NNE 22:08:32 10° NW
Cosmos 1536 Rocket 3.8 22:01:43 29° SSE 22:03:42 53° E 22:08:03 10° NNE
DNEPR-1 R/B 4.4 22:03:23 10° NNW 22:07:26 42° NE 22:09:57 21° ESE
Cosmos 1459 Rocket 4.2 22:02:11 10° NNW 22:08:10 63° W 22:12:28 19° S
Cosmos 405 3.0 22:05:50 10° N 22:09:16 61° ENE 22:10:11 42° SE
Cosmos 968 Rocket 4.4 22:06:04 10° N 22:10:49 37° ENE 22:13:42 21° ESE
Cosmos 2061 Rocket 4.0 22:05:14 10° N 22:11:44 89° E 22:15:44 25° S
Cosmos 2237 Rocket 4.1 22:12:09 12° ESE 22:12:57 12° E 22:15:12 10° ENE
Cosmos 1626 2.5 22:13:05 25° SSW 22:15:02 59° W 22:18:43 10° N
SL-16 R/B 3.6 22:11:28 10° WSW 22:16:45 38° NW 22:22:03 10° NNE
SL-8 R/B 3.6 22:14:09 10° WNW 22:18:59 89° SSW 22:22:08 21° ESE
Cosmos 2360 Rocket 2.4 22:15:15 10° SSW 22:20:53 71° WNW 22:26:33 10° NNE
Cosmos 2322 Rocket 3.3 22:15:29 10° SW 22:20:55 44° WNW 22:26:24 10° NNE
Meteor 2-10 Rocket 4.0 22:18:51 10° N 22:23:48 46° ENE 22:26:01 28° SE
Cosmos 1025 Rocket 3.7 22:21:20 19° SSW 22:24:19 51° WNW 22:28:36 10° N
COSMOS 2428 3.1 22:26:04 30° SSE 22:28:23 46° ESE 22:33:51 10° NE
Cosmos 2123 Rocket 4.2 22:28:19 20° SSW 22:32:52 71° W 22:39:13 10° N
Cosmos 2322 3.6 22:30:22 26° SSW 22:33:39 72° ESE 22:39:18 10° NNE
Cosmos 2228 3.5 22:30:57 10° N 22:35:16 51° ENE 22:36:41 36° SE
Cosmos 1455 3.8 22:32:20 10° NNE 22:35:27 23° ENE 22:36:27 21° E
Cosmos 1346 Rocket 3.4 22:35:16 37° ESE 22:35:55 40° E 22:39:42 10° NNE
Meteor 2-5 Rocket 3.6 22:36:20 28° SSW 22:39:23 87° W 22:45:00 10° N
Cosmos 1300 3.0 22:38:01 10° NNW 22:41:48 58° W 22:42:49 41° SSW
Cosmos 2278 Rocket 3.2 22:38:31 10° NNW 22:43:49 39° NE 22:47:25 19° ESE
Lacrosse 5 rocket 0.8 22:43:30 46° SW 22:44:28 79° SE 22:48:04 10° NE
Cosmos 1900 4.3 22:39:54 10° NW 22:44:47 68° WSW 22:46:28 39° S
Cosmos 2233 Rocket 3.9 22:39:50 10° N 22:46:00 84° W 22:49:07 31° S
Cosmos 1447 Rocket 4.5 22:45:17 31° S 22:48:26 75° E 22:54:38 10° NNE
FALCON 9 DEB 3.3 22:46:54 10° WSW 22:50:19 68° NNW 22:53:43 10° NE
Cosmos 1867 4.2 22:45:48 10° NNW 22:51:10 52° NE 22:54:32 22° ESE
Cosmos 1461 3.9 22:52:57 10° NW 22:56:37 30° WSW 22:57:10 29° SW
Lacrosse 5 3.8 22:55:04 10° W 22:57:56 15° WSW 22:58:44 15° SW
ATLAS 3B R/B 2.5 22:53:00 16° SW 22:58:26 88° SE 23:05:14 10° NE
Terra 3.8 22:57:27 13° SW 23:00:03 19° W 23:03:27 10° NW
Cosmos 1844 Rocket 3.8 22:55:37 10° NW 23:00:35 32° WSW 23:02:55 23° SW
Cosmos 1302 Rocket 4.2 22:57:34 25° SW 23:00:39 70° WNW 23:05:55 10° NNE
BREEZE-M DEB (TANK) 2.6 22:58:10 10° W 23:01:09 74° NNW 23:08:56 10° ENE
Cosmos 1726 Rocket 3.8 22:57:18 10° N 23:01:45 62° E 23:02:59 43° SE
ALOS 2 2.6 23:07:29 45° SE 23:08:43 70° ENE 23:13:07 10° N
Cosmos 389 Rocket 2.2 23:06:28 10° NNW 23:09:53 80° W 23:10:03 77° SW
Cosmos 1703 4.4 23:10:30 28° E 23:10:51 29° E 23:14:17 10° NNE
USA 215 3.6 23:04:52 10° NE 23:11:22 68° NNW 23:17:50 10° WSW
Cosmos 1606 Rocket 3.6 23:10:27 10° NNW 23:14:56 76° W 23:16:05 49° S
Cosmos 1892 Rocket 3.6 23:14:58 50° SSE 23:15:55 65° E 23:20:20 10° NNE
NOSS 0 Rocket 4.1 23:14:36 36° S 23:16:56 57° ESE 23:23:01 10° NE
ATLAS CENTAUR R/B 1.8 23:13:48 10° NW 23:18:03 52° WSW 23:18:46 46° SSW
Cosmos 2333 Rocket 2.8 23:16:40 16° SW 23:21:07 54° WNW 23:26:46 10° NNE
BREEZE-M DEB (TANK) 4.3 23:18:07 10° W 23:21:41 65° N 23:33:27 10° E
Cosmos 1980 4.1 23:20:09 38° SSE 23:21:47 49° ESE 23:27:14 10° NE
Cosmos 1441 Rocket 4.1 23:21:51 34° ESE 23:22:05 34° E 23:25:36 10° NNE
SJ 16-02 3.9 23:22:30 10° NNE 23:25:01 15° NE 23:27:32 10° E
Cosmos 1464 Rocket 4.0 23:20:31 10° N 23:26:54 77° E 23:29:46 35° SSE
Cosmos 1486 Rocket 4.1 23:25:21 10° NNW 23:30:31 64° WSW 23:32:05 43° SSW
FAST Rocket 4.4 23:37:23 68° ENE 23:37:23 68° ENE 23:40:46 10° NNE
Cosmos 1943 Rocket 4.2 23:32:53 10° N 23:37:13 23° NE 23:41:34 10° E
Nimbus 7 Rocket 4.4 23:31:19 10° NNE 23:37:23 75° ESE 23:39:54 37° S
Cosmos 1354 Rocket 4.0 23:36:28 10° NNW 23:41:51 82° ENE 23:43:50 40° SSE
Cosmos 2219 Rocket 3.2 23:39:57 14° WSW 23:44:26 42° NW 23:49:50 10° NNE
USA 267 3.3 23:42:18 33° SSE 23:45:10 58° SW 23:51:37 10° WNW
Cosmos 2346 Rocket 4.4 23:45:08 38° S 23:47:39 85° E 23:53:50 10° N
FALCON 9 DEB 3.5 23:49:02 50° NE 23:49:02 50° NE 23:51:29 10° ENE
Cosmos 1626 Rocket 4.0 23:47:31 42° SE 23:48:26 49° E 23:52:45 10° NNE
FALCON 9 DEB 3.3 23:48:59 61° N 23:48:59 61° N 23:51:48 10° NE
SL-16 R/B 3.4 23:48:19 24° SE 23:49:45 27° ESE 23:54:28 10° NE
Cosmos 1992 Rocket 4.3 23:49:41 31° SW 23:52:04 60° WNW 23:57:16 10° NNE
EO 1 Del DPAF 4.4 23:49:12 10° NE 23:52:27 28° E 23:52:37 28° ESE
Cosmos 1602 Rocket 4.3 23:53:05 35° SE 23:54:04 41° E 23:58:17 10° NNE
Meteor 1-21 Rocket 4.1 23:52:01 40° SSW 23:54:07 88° W 23:59:51 10° N
